This is the latest recevied weather packets stored in our database for station/object VK2XSE. If no packets are shown the sender has not sent any weather packets the latest 10 day(s).
| Time | Temp. | Humidity | Pressure | Rain* | Wind** | Luminosity | Snow |
|---|---|---|---|---|---|---|---|
| 1777833318 | 12.22° C | 93% | 1015 hPa | 0 mm | - | 0 W/m² | - |
| 1777832718 | 12.22° C | 93% | 1014.9 hPa | 0 mm | - | 0 W/m² | - |
| 1777832118 | 12.22° C | 93% | 1014.8 hPa | 0 mm | - | 0 W/m² | - |
| 1777831518 | 12.78° C | 93% | 1015.1 hPa | 0 mm | - | 0 W/m² | - |
| 1777830917 | 12.78° C | 93% | 1015.2 hPa | 0 mm | - | 0 W/m² | - |
| 1777830317 | 12.78° C | 93% | 1015.2 hPa | 0 mm | - | 0 W/m² | - |
| 1777829717 | 12.78° C | 93% | 1015.3 hPa | 0 mm | - | 0 W/m² | - |
| 1777829117 | 12.78° C | 93% | 1015.2 hPa | 0 mm | - | 0 W/m² | - |
| 1777828517 | 12.78° C | 93% | 1015.1 hPa | 0 mm | - | 0 W/m² | - |
| 1777827917 | 12.78° C | 93% | 1015.1 hPa | 0 mm | - | 0 W/m² | - |
| 1777827317 | 12.78° C | 93% | 1015.2 hPa | 0 mm | - | 0 W/m² | - |
| 1777826717 | 12.78° C | 93% | 1015.4 hPa | 0 mm | - | 0 W/m² | - |
| 1777826117 | 12.78° C | 93% | 1015.5 hPa | 0.25 mm | - | 0 W/m² | - |
| 1777825517 | 12.78° C | 93% | 1015.7 hPa | 0.25 mm | - | 0 W/m² | - |
| 1777824917 | 12.78° C | 93% | 1015.6 hPa | 0.25 mm | - | 0 W/m² | - |
| 1777824317 | 12.78° C | 93% | 1015.6 hPa | 0.25 mm | - | 0 W/m² | - |
| 1777823717 | 12.78° C | 93% | 1015.6 hPa | 0.25 mm | - | 0 W/m² | - |
| 1777823117 | 12.78° C | 93% | 1015.7 hPa | 0.51 mm | - | 0 W/m² | - |
| 1777822517 | 13.33° C | 93% | 1015.7 hPa | 0.51 mm | - | 0 W/m² | - |
| 1777821917 | 13.33° C | 93% | 1015.8 hPa | 1.02 mm | - | 0 W/m² | - |
| 1777821317 | 13.33° C | 93% | 1015.8 hPa | 1.52 mm | - | 0 W/m² | - |
| 1777820717 | 13.33° C | 93% | 1015.7 hPa | 1.52 mm | - | 0 W/m² | - |
| 1777820117 | 13.33° C | 93% | 1015.9 hPa | 1.52 mm | - | 0 W/m² | - |
| 1777819517 | 13.33° C | 93% | 1016.2 hPa | 1.52 mm | - | 0 W/m² | - |
| 1777818917 | 13.33° C | 93% | 1016.4 hPa | 1.02 mm | - | 0 W/m² | - |
* Rain latest hour (hover to see other rain measurements)
** Current wind speed in m/s (hover to see current wind gust speed)